SL-16 DEB

Satellite information

Favourite Embed

Satellite Type and Status

DEBRISIN ORBIT

Key statistics

Satellite SL-16 DEB at a glance.

Uptime

11791

Days in orbit

Revolutions

≈ 13.8

Per day

Orbit

LEO

Low Earth Orbit

Inclination

71.0

Latest

Satellite identification and parameters

Extended collection of information and parameters for SL-16 DEB.

Object identification

Identified? True

Debris? True

Object name: SL-16 DEB

International designator: 1993-016N

Object number (NORAD): 22604

Object ID (CCSDS): 22604

Country: COMMONWEALTH OF INDEPENDENT STATES (CIS)

Current information (Y/N): Y

RCS size: MEDIUM

Orbital parameters

Period: 104.615 minutes

Inclination: 70.9931 deg

SMA: 7354.56 km

Apoapsis: 1102.063 km

Periapsis: 850.788 km

RAAN: 86.4046 deg

Eccentricy: 0.0170829

Argument of periapsis: 211.7066 deg

Mean anomaly: 306.2991 deg

Mean motion: 13.76472961 rev/day

Mean motion (dot): -0.00000033 rev/day2

B* drag term: 0.0000095851 1/REarth

Two-line elements (TLE)

Creation date: July 6, 2025, 6:05 p.m.

Reference frame: TEME

Reference center: EARTH

Epoch: July 6, 2025, 4:40 a.m. UTC

TLE line 0: 0 SL-16 DEB

TLE line 1: 1 22604U 93016N 25187.19484598 -.00000033 00000-0 95851-5 0 9994

TLE line 2: 2 22604 70.9931 86.4046 0170829 211.7066 306.2991 13.76472961621413

Live tracking on map

Real-time ground track for satellite SL-16 DEB.

In-orbit conjunctions

A list of the most updated potential collisions computed for object SL-16 DEB.

Target Orbit TCA Probability of collision Miss distance Type
COSMOS 1375 DEB LEO 2024-08-08 01:31:23 0.0002669942 28.0 (m) DEBRIS

Associated space launch

Second generation ELING satellite

SL-16 DEB was lifted into orbit during the mission ‘Zenit-2 | Tselina-2 13’, on board a Zenit-2 space rocket.

The launch took place on March 26, 1993, 2:21 a.m. from 45/1.

For more information about the launch, click the button.

Launch to space Zenit-2 | Tselina-2 13
Zenit-2 | Tselina-2 13

Agency: N/A

Status: Launch Successful

Launch date: March 26, 1993, 2:21 a.m. UTC

Rocket: Zenit-2

Launch pad: 45/1

Location: Baikonur Cosmodrome, Republic of Kazakhstan

...

Latest news about this satellite

There are no fresh news available about this satellite. Check back as we update our databases every day.


Newsletter sign-up

Weekly statistics, charts and insights to help you stay on top of the space industry.